Home > Weather > Mattersburg > Past weeks

Flag for Austria Weather for the Past 2 Weeks in Mattersburg, Burgenland, Austria

Now
45 °F

Quite cool.


Feels Like: 45 °F
Forecast: 36 / 50 °F
Wind: 2 mph from North

Location: Eisenstadt

Current Time: Feb 9, 2016 at 9:50:31 AM

Latest Report: Feb 9, 2016 at 8:00 AM


Visibility: N/A

Pressure: 29.88 "Hg

Humidity: 80%

Dew point: 39 °F

Location of MattersburgLocation

Historic Weather in Mattersburg — Graph

°F

Mattersburg Temperature Yesterday

Maximum temperature yesterday: 54 °F (at 5:00 PM)
Minimum temperature yesterday: 44 °F (at 7:00 AM)
Average temperature yesterday: 49 °F

High & Low Weather Summary for the Past Weeks

 TemperatureHumidityPressure
High60 °F (Feb 1, 1:00 PM)100% (Jan 30, 8:00 PM)30.43 "Hg (Jan 30, 8:00 PM)
Low30 °F (Jan 27, 8:00 AM)42% (Feb 7, 11:00 AM)29.70 "Hg (Feb 8, 10:00 PM)
Average43 °F81%30.14 "Hg
* Reported Jan 25 8:00 AM — Feb 9 8:00 AM, Mattersburg, Weather by CustomWeather, © 2016

Note: Actual official high and low records may vary slightly from our data, if they occured in-between our weather recording intervals... More about our weather records

Advertising

Mattersburg Weather History for the Previous 24 Hours

 ConditionsComfort  
Time TempWeatherWind HumidityBarometerVisibility
8:00 AM
Tue, Feb 9
45 °FQuite cool.2 mph80%29.88 "HgN/A
5:00 AM45 °FCool.2 mph79%29.88 "HgN/A
4:00 AM44 °FOvercast.3 mph79%29.87 "Hg6 mi
10:00 PM
Mon, Feb 8
49 °FClear.2 mph76%29.70 "Hg9 mi
9:00 PM52 °FCool.3 mph71%29.71 "HgN/A
8:00 PM53 °FCool.5 mph69%29.73 "HgN/A
7:00 PM53 °FOvercast.5 mph69%29.73 "Hg12 mi
6:00 PM54 °FCool.6 mph65%29.75 "HgN/A
5:00 PM54 °FCool.7 mph63%29.75 "HgN/A
4:00 PM54 °FOvercast.6 mph63%29.76 "Hg12 mi
3:00 PM54 °FCool.8 mph62%29.77 "HgN/A
2:00 PM54 °FCool.6 mph62%29.80 "HgN/A
1:00 PM49 °FOvercast.6 mph73%29.84 "Hg12 mi
12:00 PM46 °FCool.2 mph77%29.89 "HgN/A
11:00 AM45 °FCool.3 mph78%29.91 "HgN/A
10:00 AM45 °FOvercast.3 mph77%29.92 "Hg12 mi
9:00 AM46 °FCool.3 mph76%29.94 "HgN/A
Weather by CustomWeather, © 2016

See weather overviewHow to use our weather pages